Location: Asheville, NC
(35.6000°N, 82.5500°W)
Time: 00:40:15
(UTC-04:00)

Vanguard 3 - Pass Details

Date: 16 March 2018
Orbit: 508 x 3264 km, 33.3° (Epoch: 18 June)

Event Time Altitude Azimuth Distance (km) Brightness Sun altitude
Rises 05:59:00 0° 201° (SSW) 6,368 11.4 -21.1°
Reaches altitude 10° 06:03:47 10° 191° (S) 5,671 11.2 -20.2°
Maximum altitude 06:18:30 30° 138° (SE) 4,671 11.3 -17.2°
Drops below altitude 10° 06:33:45 10° 87° (E) 5,945 13.0 -14.2°
Sets 06:38:48 0° 78° (ENE) 6,716 13.9 -13.2°
